Location: Newark
(49.9819°N, 3.0344°E)
Time: 23:06:38
(UTC+00:00)

ISS - Pass Details

Date: 01 February 2020
Orbit: 416 x 422 km, 51.6° (Epoch: 20 February)

Event Time Altitude Azimuth Distance (km) Brightness Sun altitude
Rises 19:04:35 0° 287° (WNW) 2,379 1.3 -23.1°
Reaches altitude 10° 19:06:42 10° 285° (WNW) 1,511 0.1 -23.4°
Enters shadow 19:09:11 43° 265° (W) 605 -2.6 -23.8°
